Time,TemperatureF,DewpointF,PressureIn,WindDirection,WindDirectionDegrees,WindSpeedMPH,WindSpeedGustMPH,Humidity,HourlyPrecipIn,Conditions,Clouds,dailyrainin,SoftwareType,DateUTC
2013-01-10 00:04:00,42.0,29.0,30.19,SSW,193,7.0,12.0,61,0.00,,,0.00,weatherlink.com 1.10,2013-01-10 05:04:00,
2013-01-10 00:19:00,41.9,30.0,30.19,SW,221,10.0,19.0,63,0.00,,,0.00,weatherlink.com 1.10,2013-01-10 05:19:00,
2013-01-10 00:46:00,40.7,26.0,30.22,WSW,253,2.0,11.0,57,0.00,,,0.00,weatherlink.com 1.10,2013-01-10 05:46:00,
2013-01-10 00:49:00,40.6,26.0,30.22,SSW,202,12.0,14.0,56,0.00,,,0.00,weatherlink.com 1.10,2013-01-10 05:49:00,
2013-01-10 01:04:00,40.0,25.0,30.24,North,355,4.0,9.0,56,0.00,,,0.00,weatherlink.com 1.10,2013-01-10 06:04:00,
2013-01-10 01:19:00,39.6,26.0,30.25,SSE,168,2.0,11.0,59,0.00,,,0.00,weatherlink.com 1.10,2013-01-10 06:19:00,
2013-01-10 01:34:00,40.1,27.0,30.25,SW,218,5.0,11.0,59,0.00,,,0.00,weatherlink.com 1.10,2013-01-10 06:34:00,
2013-01-10 01:49:00,40.1,27.0,30.26,SSW,213,6.0,17.0,59,0.00,,,0.00,weatherlink.com 1.10,2013-01-10 06:49:00,
2013-01-10 02:04:00,40.0,27.0,30.26,SW,215,4.0,12.0,61,0.00,,,0.00,weatherlink.com 1.10,2013-01-10 07:04:00,
2013-01-10 02:19:00,40.0,28.0,30.27,SW,232,5.0,13.0,62,0.00,,,0.00,weatherlink.com 1.10,2013-01-10 07:19:00,
2013-01-10 02:34:00,39.8,28.0,30.28,East,84,3.0,12.0,64,0.00,,,0.00,weatherlink.com 1.10,2013-01-10 07:34:00,
2013-01-10 02:49:00,39.7,29.0,30.29,SW,218,4.0,16.0,65,0.00,,,0.00,weatherlink.com 1.10,2013-01-10 07:49:00,
2013-01-10 03:04:00,39.2,28.0,30.30,NE,41,4.0,17.0,64,0.00,,,0.00,weatherlink.com 1.10,2013-01-10 08:04:00,
2013-01-10 03:19:00,38.8,27.0,30.30,SSW,206,7.0,17.0,64,0.00,,,0.00,weatherlink.com 1.10,2013-01-10 08:19:00,
2013-01-10 03:34:00,38.4,27.0,30.30,South,186,8.0,19.0,63,0.00,,,0.00,weatherlink.com 1.10,2013-01-10 08:34:00,
2013-01-10 03:49:00,38.0,25.0,30.30,SW,236,6.0,15.0,59,0.00,,,0.00,weatherlink.com 1.10,2013-01-10 08:49:00,
2013-01-10 04:04:00,37.5,25.0,30.31,South,184,1.0,13.0,61,0.00,,,0.00,weatherlink.com 1.10,2013-01-10 09:04:00,
2013-01-10 04:19:00,37.3,25.0,30.31,SW,221,7.0,16.0,62,0.00,,,0.00,weatherlink.com 1.10,2013-01-10 09:19:00,
2013-01-10 04:34:00,37.0,25.0,30.30,SW,219,2.0,16.0,62,0.00,,,0.00,weatherlink.com 1.10,2013-01-10 09:34:00,
2013-01-10 04:49:00,36.7,25.0,30.31,WSW,242,3.0,12.0,64,0.00,,,0.00,weatherlink.com 1.10,2013-01-10 09:49:00,
2013-01-10 05:05:00,36.6,25.0,30.31,SW,225,10.0,16.0,64,0.00,,,0.00,weatherlink.com 1.10,2013-01-10 10:05:00,
2013-01-10 05:20:00,36.5,25.0,30.31,WNW,301,1.0,15.0,64,0.00,,,0.00,weatherlink.com 1.10,2013-01-10 10:20:00,
2013-01-10 05:35:00,36.4,25.0,30.33,NE,44,5.0,13.0,64,0.00,,,0.00,weatherlink.com 1.10,2013-01-10 10:35:00,
2013-01-10 05:50:00,36.1,26.0,30.35,SSE,163,2.0,10.0,66,0.00,,,0.00,weatherlink.com 1.10,2013-01-10 10:50:00,
2013-01-10 06:05:00,35.8,25.0,30.37,SW,220,1.0,8.0,65,0.00,,,0.00,weatherlink.com 1.10,2013-01-10 11:05:00,
2013-01-10 06:20:00,35.5,25.0,30.39,NNE,32,1.0,10.0,66,0.00,,,0.00,weatherlink.com 1.10,2013-01-10 11:20:00,
2013-01-10 06:35:00,35.4,26.0,30.40,WNW,286,0.0,8.0,68,0.00,,,0.00,weatherlink.com 1.10,2013-01-10 11:35:00,
2013-01-10 06:50:00,35.4,25.0,30.41,NNE,12,3.0,8.0,65,0.00,,,0.00,weatherlink.com 1.10,2013-01-10 11:50:00,
2013-01-10 07:05:00,35.8,24.0,30.43,North,5,0.0,10.0,63,0.00,,,0.00,weatherlink.com 1.10,2013-01-10 12:05:00,
2013-01-10 07:20:00,35.6,24.0,30.44,NNE,12,1.0,4.0,62,0.00,,,0.00,weatherlink.com 1.10,2013-01-10 12:20:00,
2013-01-10 07:35:00,35.0,24.0,30.45,East,91,1.0,3.0,65,0.00,,,0.00,weatherlink.com 1.10,2013-01-10 12:35:00,
2013-01-10 07:50:00,33.7,24.0,30.46,NNE,21,0.0,3.0,67,0.00,,,0.00,weatherlink.com 1.10,2013-01-10 12:50:00,
2013-01-10 08:05:00,33.0,24.0,30.47,SSW,201,0.0,4.0,69,0.00,,,0.00,weatherlink.com 1.10,2013-01-10 13:05:00,
2013-01-10 08:20:00,33.9,24.0,30.48,NNE,16,0.0,3.0,67,0.00,,,0.00,weatherlink.com 1.10,2013-01-10 13:20:00,
2013-01-10 08:35:00,34.6,25.0,30.48,SW,215,0.0,3.0,69,0.00,,,0.00,weatherlink.com 1.10,2013-01-10 13:35:00,
2013-01-10 08:50:00,35.3,26.0,30.48,ESE,123,1.0,6.0,68,0.00,,,0.00,weatherlink.com 1.10,2013-01-10 13:50:00,
2013-01-10 09:05:00,36.2,25.0,30.50,West,264,1.0,5.0,65,0.00,,,0.00,weatherlink.com 1.10,2013-01-10 14:05:00,
2013-01-10 09:20:00,37.0,25.0,30.50,East,94,1.0,7.0,62,0.00,,,0.00,weatherlink.com 1.10,2013-01-10 14:20:00,
2013-01-10 09:35:00,37.3,26.0,30.52,WSW,244,2.0,7.0,63,0.00,,,0.00,weatherlink.com 1.10,2013-01-10 14:35:00,
2013-01-10 09:50:00,37.7,26.0,30.52,SSW,194,0.0,6.0,62,0.00,,,0.00,weatherlink.com 1.10,2013-01-10 14:50:00,
2013-01-10 10:05:00,38.1,26.0,30.52,South,186,3.0,7.0,62,0.00,,,0.00,weatherlink.com 1.10,2013-01-10 15:05:00,
2013-01-10 10:20:00,38.8,26.0,30.53,NNE,17,3.0,8.0,61,0.00,,,0.00,weatherlink.com 1.10,2013-01-10 15:20:00,
2013-01-10 10:35:00,39.3,26.0,30.53,West,259,0.0,9.0,59,0.00,,,0.00,weatherlink.com 1.10,2013-01-10 15:35:00,
2013-01-10 10:50:00,39.3,26.0,30.52,SW,229,6.0,12.0,59,0.00,,,0.00,weatherlink.com 1.10,2013-01-10 15:50:00,
2013-01-10 11:05:00,39.7,25.0,30.52,NE,38,3.0,10.0,56,0.00,,,0.00,weatherlink.com 1.10,2013-01-10 16:05:00,
2013-01-10 11:20:00,40.2,25.0,30.51,NE,46,3.0,11.0,55,0.00,,,0.00,weatherlink.com 1.10,2013-01-10 16:20:00,
2013-01-10 11:35:00,40.6,25.0,30.50,NW,315,1.0,9.0,55,0.00,,,0.00,weatherlink.com 1.10,2013-01-10 16:35:00,
2013-01-10 11:50:00,40.7,25.0,30.50,South,171,2.0,15.0,55,0.00,,,0.00,weatherlink.com 1.10,2013-01-10 16:50:00,
2013-01-10 12:05:00,41.0,26.0,30.50,SW,224,1.0,12.0,55,0.00,,,0.00,weatherlink.com 1.10,2013-01-10 17:05:00,
2013-01-10 12:20:00,41.6,25.0,30.50,North,360,1.0,7.0,53,0.00,,,0.00,weatherlink.com 1.10,2013-01-10 17:20:00,
2013-01-10 12:35:00,41.2,26.0,30.49,West,265,1.0,9.0,56,0.00,,,0.00,weatherlink.com 1.10,2013-01-10 17:35:00,
2013-01-10 12:50:00,41.2,26.0,30.49,SSW,200,3.0,9.0,54,0.00,,,0.00,weatherlink.com 1.10,2013-01-10 17:50:00,
2013-01-10 13:05:00,41.8,27.0,30.49,WSW,252,2.0,6.0,55,0.00,,,0.00,weatherlink.com 1.10,2013-01-10 18:05:00,
2013-01-10 13:20:00,42.0,27.0,30.48,North,5,1.0,9.0,55,0.00,,,0.00,weatherlink.com 1.10,2013-01-10 18:20:00,
2013-01-10 13:36:00,42.5,25.0,30.49,WSW,254,3.0,10.0,51,0.00,,,0.00,weatherlink.com 1.10,2013-01-10 18:36:00,
2013-01-10 13:51:00,42.7,26.0,30.50,West,280,2.0,8.0,52,0.00,,,0.00,weatherlink.com 1.10,2013-01-10 18:51:00,
2013-01-10 14:06:00,42.5,27.0,30.50,NNE,29,3.0,7.0,54,0.00,,,0.00,weatherlink.com 1.10,2013-01-10 19:06:00,
2013-01-10 14:21:00,42.8,27.0,30.50,SSW,203,2.0,7.0,53,0.00,,,0.00,weatherlink.com 1.10,2013-01-10 19:21:00,
2013-01-10 14:36:00,42.4,27.0,30.50,WSW,242,0.0,9.0,54,0.00,,,0.00,weatherlink.com 1.10,2013-01-10 19:36:00,
2013-01-10 14:51:00,42.0,26.0,30.50,NNE,12,1.0,8.0,53,0.00,,,0.00,weatherlink.com 1.10,2013-01-10 19:51:00,
2013-01-10 15:06:00,42.0,27.0,30.50,SSW,211,1.0,4.0,55,0.00,,,0.00,weatherlink.com 1.10,2013-01-10 20:06:00,
2013-01-10 15:21:00,41.3,26.0,30.51,North,10,5.0,11.0,56,0.00,,,0.00,weatherlink.com 1.10,2013-01-10 20:21:00,
2013-01-10 15:36:00,40.8,26.0,30.51,NNW,331,0.0,8.0,57,0.00,,,0.00,weatherlink.com 1.10,2013-01-10 20:36:00,
2013-01-10 15:51:00,41.2,27.0,30.51,SW,214,0.0,9.0,58,0.00,,,0.00,weatherlink.com 1.10,2013-01-10 20:51:00,
2013-01-10 16:06:00,41.3,26.0,30.52,NNW,332,3.0,4.0,56,0.00,,,0.00,weatherlink.com 1.10,2013-01-10 21:06:00,
2013-01-10 16:21:00,40.2,26.0,30.52,North,350,0.0,4.0,57,0.00,,,0.00,weatherlink.com 1.10,2013-01-10 21:21:00,
2013-01-10 16:36:00,39.3,25.0,30.53,NNE,30,3.0,4.0,58,0.00,,,0.00,weatherlink.com 1.10,2013-01-10 21:36:00,
2013-01-10 16:51:00,38.1,26.0,30.53,NE,35,3.0,7.0,61,0.00,,,0.00,weatherlink.com 1.10,2013-01-10 21:51:00,
2013-01-10 17:06:00,38.1,26.0,30.53,NNW,348,2.0,6.0,61,0.00,,,0.00,weatherlink.com 1.10,2013-01-10 22:06:00,
2013-01-10 17:21:00,37.6,25.0,30.54,NE,40,2.0,6.0,62,0.00,,,0.00,weatherlink.com 1.10,2013-01-10 22:21:00,
2013-01-10 17:36:00,36.9,26.0,30.54,North,355,0.0,5.0,64,0.00,,,0.00,weatherlink.com 1.10,2013-01-10 22:36:00,
2013-01-10 17:51:00,35.9,27.0,30.54,NW,315,0.0,5.0,69,0.00,,,0.00,weatherlink.com 1.10,2013-01-10 22:51:00,
2013-01-10 18:06:00,35.7,26.0,30.54,North,355,1.0,4.0,67,0.00,,,0.00,weatherlink.com 1.10,2013-01-10 23:06:00,
2013-01-10 18:21:00,34.9,26.0,30.54,NNE,26,1.0,4.0,70,0.00,,,0.00,weatherlink.com 1.10,2013-01-10 23:21:00,
2013-01-10 18:36:00,34.7,25.0,30.55,North,360,0.0,3.0,69,0.00,,,0.00,weatherlink.com 1.10,2013-01-10 23:36:00,
2013-01-10 18:51:00,33.7,26.0,30.55,NNE,31,0.0,2.0,72,0.00,,,0.00,weatherlink.com 1.10,2013-01-10 23:51:00,
2013-01-10 19:06:00,33.2,25.0,30.55,North,349,0.0,4.0,73,0.00,,,0.00,weatherlink.com 1.10,2013-01-11 00:06:00,
2013-01-10 19:21:00,33.4,26.0,30.56,NE,46,0.0,2.0,75,0.00,,,0.00,weatherlink.com 1.10,2013-01-11 00:21:00,
2013-01-10 19:36:00,33.4,26.0,30.56,NE,40,0.0,3.0,75,0.00,,,0.00,weatherlink.com 1.10,2013-01-11 00:36:00,
2013-01-10 19:51:00,33.5,26.0,30.56,NNW,333,0.0,2.0,74,0.00,,,0.00,weatherlink.com 1.10,2013-01-11 00:51:00,
2013-01-10 20:06:00,33.3,26.0,30.57,NE,49,2.0,4.0,73,0.00,,,0.00,weatherlink.com 1.10,2013-01-11 01:06:00,
2013-01-10 20:21:00,33.2,25.0,30.56,North,5,1.0,3.0,73,0.00,,,0.00,weatherlink.com 1.10,2013-01-11 01:21:00,
2013-01-10 20:36:00,32.8,25.0,30.57,NNW,344,0.0,2.0,74,0.00,,,0.00,weatherlink.com 1.10,2013-01-11 01:36:00,
2013-01-10 20:51:00,32.6,25.0,30.57,North,9,1.0,3.0,74,0.00,,,0.00,weatherlink.com 1.10,2013-01-11 01:51:00,
2013-01-10 21:06:00,31.9,25.0,30.57,North,11,0.0,1.0,75,0.00,,,0.00,weatherlink.com 1.10,2013-01-11 02:06:00,
2013-01-10 21:21:00,31.4,25.0,30.57,North,11,0.0,2.0,77,0.00,,,0.00,weatherlink.com 1.10,2013-01-11 02:21:00,
2013-01-10 21:36:00,31.7,25.0,30.57,NNE,17,0.0,2.0,76,0.00,,,0.00,weatherlink.com 1.10,2013-01-11 02:36:00,
2013-01-10 21:51:00,31.1,25.0,30.57,NNE,17,0.0,1.0,77,0.00,,,0.00,weatherlink.com 1.10,2013-01-11 02:51:00,
2013-01-10 22:06:00,30.1,24.0,30.57,NNE,17,0.0,3.0,79,0.00,,,0.00,weatherlink.com 1.10,2013-01-11 03:06:00,
2013-01-10 22:21:00,30.1,25.0,30.57,NNE,17,0.0,0.0,81,0.00,,,0.00,weatherlink.com 1.10,2013-01-11 03:21:00,
2013-01-10 22:36:00,29.0,24.0,30.57,NNE,17,0.0,0.0,82,0.00,,,0.00,weatherlink.com 1.10,2013-01-11 03:36:00,
2013-01-10 22:51:00,28.8,24.0,30.57,NNE,17,0.0,0.0,82,0.00,,,0.00,weatherlink.com 1.10,2013-01-11 03:51:00,
2013-01-10 23:06:00,28.3,24.0,30.57,NNE,17,0.0,0.0,84,0.00,,,0.00,weatherlink.com 1.10,2013-01-11 04:06:00,
2013-01-10 23:21:00,28.3,24.0,30.57,NNW,348,1.0,2.0,83,0.00,,,0.00,weatherlink.com 1.10,2013-01-11 04:21:00,
2013-01-10 23:36:00,28.1,24.0,30.57,NNW,330,0.0,2.0,83,0.00,,,0.00,weatherlink.com 1.10,2013-01-11 04:36:00,
2013-01-10 23:51:00,28.5,24.0,30.57,NNW,344,0.0,2.0,83,0.00,,,0.00,weatherlink.com 1.10,2013-01-11 04:51:00,